EW0784 Weather Reports


Display with metric or nautical units.
time (UTC)temp
F
wind
direction
speed
MPH
gust
MPH
rain 1hr
in
rain 24hr
in
rain mn
in
humidity
%
barometer
mb
20260901113012 62 259 0.0 0.0 0.00 0.00 0.00 97 1013.7
20260901111511 62 259 0.0 0.0 0.00 0.00 0.00 97 1013.6
20260901110009 62 259 0.0 0.0 0.00 0.00 0.00 97 1013.4
20260901104510 62 259 0.0 0.0 0.00 0.00 0.00 97 1013.1
20260901103007 61 259 0.0 0.0 0.00 0.00 0.00 97 1013.1
20260901101505 62 259 0.0 0.0 0.00 0.00 0.00 97 1013.0
20260901100004 62 259 0.0 0.0 0.00 0.00 0.00 97 1012.9
20260901094507 63 259 0.0 0.0 0.00 0.00 0.00 97 1012.8
20260901093002 63 259 0.0 0.0 0.00 0.00 0.00 96 1012.8
20260901091503 63 259 0.0 0.0 0.00 0.00 0.00 96 1012.7
20260901090005 63 259 0.0 0.0 0.00 0.00 0.00 96 1012.8
20260901084600 62 259 0.0 0.0 0.00 0.00 0.00 95 1012.9
20260901083059 63 259 0.0 0.0 0.00 0.00 0.00 95 1012.7
20260901081558 63 259 0.0 0.0 0.00 0.00 0.00 95 1012.8
20260901080056 63 259 0.0 0.0 0.00 0.00 0.00 95 1012.9
20260901074555 64 259 0.0 0.0 0.00 0.00 0.00 95 1012.9
20260901073054 64 259 0.0 0.0 0.00 0.00 0.00 95 1013.1
20260901071554 64 259 0.0 0.0 0.00 0.00 0.00 95 1013.2
20260901070059 64 259 0.0 0.0 0.00 0.00 0.00 94 1013.3
20260901064552 64 259 0.0 0.0 0.00 0.00 0.00 93 1013.3
20260901063103 65 259 0.0 0.0 0.00 0.00 0.00 92 1013.2
20260901061558 65 259 0.0 0.0 0.00 0.00 0.00 92 1013.3
20260901060052 66 259 0.0 0.0 0.00 0.00 0.00 92 1013.2
20260901054544 66 259 0.0 0.0 0.00 0.00 0.00 92 1013.1
20260901053049 66 260 0.0 0.0 0.00 0.00 0.00 91 1012.9
20260901051541 67 259 0.0 0.0 0.00 0.00 0.00 89 1012.8
20260901050036 67 259 0.0 0.0 0.00 0.00 0.00 88 1012.6
20260901044533 67 259 0.0 0.0 0.00 0.00 0.00 86 1012.5
20260901043034 68 259 0.0 0.0 0.00 0.00 0.00 85 1012.5
20260901041528 69 259 0.0 0.0 0.00 0.00 0.00 82 1012.4
20260901040030 69 259 0.0 0.0 0.00 0.00 0.00 82 1012.5
20260901034530 70 259 0.0 0.0 0.00 0.00 0.00 81 1012.5
20260901033026 70 260 0.0 0.0 0.00 0.00 0.00 80 1012.5
20260901031525 70 259 0.0 0.0 0.00 0.00 0.00 81 1012.4
20260901030025 70 259 0.0 0.0 0.00 0.00 0.00 80 1012.4
20260901024524 71 260 0.0 0.0 0.00 0.00 0.00 80 1012.3
20260901023031 70 260 0.0 0.0 0.00 0.00 0.00 82 1012.1
20260901021522 70 260 0.0 0.0 0.00 0.00 0.00 81 1012.2
20260901020022 71 260 0.0 0.0 0.00 0.00 0.00 79 1012.0
20260901014519 72 260 0.0 0.0 0.00 0.00 0.00 77 1011.8
20260901013017 74 271 0.0 0.0 0.00 0.00 0.00 71 1011.5
20260901011517 75 271 0.0 0.0 0.00 0.00 0.00 67 1011.5
20260901010017 77 272 0.0 0.0 0.00 0.00 0.00 65 1011.3
20260901004514 79 273 0.0 0.0 0.00 0.00 0.00 64 1011.1
20260901003013 83 274 0.0 0.0 0.00 0.00 0.00 59 1011.2
20260901001512 85 274 0.0 0.0 0.00 0.00 0.00 55 1011.2
20260901000011 86 274 0.0 0.0 0.00 0.00 0.00 51 1011.2
20260831234511 87 274 0.0 0.0 0.00 0.00 0.00 50 1011.0
20260831233010 88 274 0.0 0.0 0.00 0.00 0.00 51 1011.0
20260831231509 89 274 0.0 0.0 0.00 0.00 0.00 47 1011.1
20260831230011 88 274 0.0 0.0 0.00 0.00 0.00 47 1011.1
20260831224508 88 274 0.0 0.0 0.00 0.00 0.00 46 1011.0
20260831223007 89 357 0.0 0.0 0.00 0.00 0.00 46 1010.8
20260831221506 87 287 0.0 0.0 0.00 0.00 0.00 51 1010.7
20260831220008 88 317 0.0 0.0 0.00 0.00 0.00 48 1010.6
20260831214505 89 252 0.0 0.0 0.00 0.00 0.00 45 1010.6
20260831213004 89 328 0.0 0.0 0.00 0.00 0.00 46 1010.5
20260831211503 90 100 0.0 0.0 0.00 0.00 0.00 48 1010.4
20260831210002 90 236 0.0 0.0 0.00 0.00 0.00 47 1010.4
20260831204601 89 336 0.0 0.0 0.00 0.00 0.00 49 1010.4
20260831203106 88 118 0.0 0.0 0.00 0.00 0.00 51 1010.4
20260831201557 89 86 0.0 1.0 0.00 0.00 0.00 54 1010.5
20260831200055 88 244 0.0 0.0 0.00 0.00 0.00 55 1010.4
20260831194653 87 309 0.0 3.0 0.00 0.00 0.00 57 1010.4
20260831193050 87 240 0.0 0.0 0.00 0.00 0.00 60 1010.4
20260831191548 86 101 0.0 0.0 0.00 0.00 0.00 60 1010.4
20260831184546 85 245 0.0 0.0 0.00 0.00 0.00 63 1010.4
20260831183043 84 19 0.0 3.0 0.00 0.00 0.00 64 1010.4
20260831181545 84 296 0.0 0.0 0.00 0.00 0.00 69 1010.4
20260831180042 84 347 0.0 4.0 0.00 0.00 0.00 68 1010.7
20260831174538 83 220 0.0 0.0 0.00 0.00 0.00 73 1010.7
20260831173037 82 25 0.0 0.0 0.00 0.00 0.00 76 1010.8
20260831171539 81 43 0.0 2.0 0.00 0.00 0.00 79 1010.7
20260831170036 81 293 0.0 0.0 0.00 0.00 0.00 78 1010.8
20260831164536 81 285 0.0 4.0 0.00 0.00 0.00 79 1010.7
20260831163036 81 48 0.0 0.0 0.00 0.00 0.00 80 1010.6
20260831161527 81 247 0.0 0.0 0.00 0.00 0.00 80 1010.6
20260831160025 80 293 0.0 0.0 0.00 0.00 0.00 81 1010.5
20260831154525 80 327 0.0 0.0 0.00 0.00 0.00 81 1010.4
20260831153025 80 293 0.0 0.0 0.00 0.00 0.00 83 1010.1
20260831151519 79 273 0.0 0.0 0.00 0.00 0.00 84 1009.8
20260831150017 79 316 0.0 3.0 0.00 0.00 0.00 83 1009.6
20260831144514 78 280 0.0 6.0 0.00 0.00 0.00 85 1009.4
20260831143024 78 262 0.0 3.0 0.00 0.00 0.00 85 1009.3
20260831141534 78 240 0.0 0.0 0.00 0.00 0.00 85 1009.1
20260831140009 77 264 0.0 0.0 0.00 0.00 0.00 87 1008.8
20260831134504 76 241 0.0 0.0 0.00 0.00 0.00 88 1008.8
20260831133104 75 283 0.0 0.0 0.00 0.00 0.00 89 1008.7
20260831131604 74 279 0.0 0.0 0.00 0.00 0.00 92 1008.6
20260831130058 73 243 0.0 0.0 0.00 0.00 0.00 92 1008.5
20260831124608 72 117 0.0 0.0 0.00 0.00 0.00 94 1008.4
20260831123055 71 117 0.0 0.0 0.00 0.00 0.00 96 1008.4
20260831121554 70 117 0.0 0.0 0.00 0.00 0.00 96 1008.2
20260831120053 69 117 0.0 0.0 0.00 0.00 0.00 96 1008.0
20260831114552 69 117 0.0 0.0 0.00 0.00 0.00 96 1007.8